This is the latest recevied weather packets stored in our database for station/object KC5TIL-3. If no packets are shown the sender has not sent any weather packets the latest 10 day(s).
| Time | Temp. | Humidity | Pressure | Rain* | Wind** | Luminosity | Snow |
|---|---|---|---|---|---|---|---|
| 1777168023 | 27.78° C | 32% | 1001.8 hPa | 0 mm | 2.68 m/s, 188° | - | - |
| 1777167724 | 27.78° C | 31% | 1001.8 hPa | 0 mm | 3.58 m/s, 152° | - | - |
| 1777167423 | 27.78° C | 31% | 1001.8 hPa | 0 mm | 3.13 m/s, 147° | - | - |
| 1777167125 | 28.33° C | 31% | 1001.8 hPa | 0 mm | 3.13 m/s, 175° | - | - |
| 1777166827 | 28.33° C | 31% | 1001.8 hPa | 0 mm | 3.58 m/s, 217° | - | - |
| 1777166526 | 28.33° C | 31% | 1001.8 hPa | 0 mm | 2.68 m/s, 150° | - | - |
| 1777166228 | 28.33° C | 31% | 1001.8 hPa | 0 mm | 3.13 m/s, 173° | - | - |
| 1777165925 | 28.33° C | 31% | 1001.8 hPa | 0 mm | 4.47 m/s, 186° | - | - |
| 1777165624 | 28.33° C | 30% | 1000.8 hPa | 0 mm | 2.24 m/s, 214° | - | - |
| 1777165321 | 28.33° C | 30% | 1000.8 hPa | 0 mm | 4.47 m/s, 116° | - | - |
| 1777165022 | 28.33° C | 30% | 1000.8 hPa | 0 mm | 4.02 m/s, 187° | - | - |
| 1777164721 | 28.33° C | 30% | 1000.8 hPa | 0 mm | 4.47 m/s, 127° | - | - |
| 1777164423 | 28.89° C | 30% | 1000.8 hPa | 0 mm | 3.13 m/s, 149° | - | - |
| 1777164125 | 28.89° C | 30% | 1000.8 hPa | 0 mm | 4.02 m/s, 256° | - | - |
| 1777163819 | 28.89° C | 30% | 1001.8 hPa | 0 mm | 3.13 m/s, 151° | - | - |
| 1777163521 | 28.89° C | 30% | 1001.8 hPa | 0 mm | 3.13 m/s, 205° | - | - |
| 1777163223 | 29.44° C | 30% | 1001.8 hPa | 0 mm | 3.13 m/s, 175° | - | - |
| 1777162922 | 29.44° C | 29% | 1001.8 hPa | 0 mm | 4.02 m/s, 157° | - | - |
| 1777162619 | 29.44° C | 29% | 1001.8 hPa | 0 mm | 3.58 m/s, 151° | - | - |
| 1777162321 | 29.44° C | 29% | 1001.8 hPa | 0 mm | 3.13 m/s, 120° | - | - |
| 1777162020 | 29.44° C | 29% | 1001.8 hPa | 0 mm | 4.47 m/s, 246° | - | - |
| 1777161722 | 29.44° C | 29% | 1001.8 hPa | 0 mm | 3.13 m/s, 176° | - | - |
| 1777161419 | 30° C | 29% | 1001.8 hPa | 0 mm | 3.58 m/s, 218° | - | - |
| 1777161113 | 29.44° C | 29% | 1001.8 hPa | 0 mm | 4.47 m/s, 228° | - | - |
| 1777160815 | 30° C | 29% | 1001.8 hPa | 0 mm | 4.02 m/s, 94° | - | - |
* Rain latest hour (hover to see other rain measurements)
** Current wind speed in m/s (hover to see current wind gust speed)